Location: The Saddle
(36.8333°N, 80.3417°W)
Time: 07:21:34
(UTC-05:00)

A-11 Canister half - Pass Details

Date: 09 December 2023
Orbit: 1512 x 1687 km, 47.2° (Epoch: 27 February)

Event Time Altitude Azimuth Distance (km) Brightness Sun altitude
Rises 03:23:42 0° 294° (WNW) 4,794 - -46.9°
Reaches altitude 10° 03:26:55 10° 299° (WNW) 3,832 - -46.3°
Maximum altitude 03:36:27 52° 14° (NNE) 1,989 - -44.4°
Exits shadow 03:37:48 49° 38° (NE) 2,050 9.6 -44.1°
Drops below altitude 10° 03:46:15 10° 89° (E) 3,938 11.8 -42.4°
Sets 03:49:36 0° 95° (E) 4,934 12.5 -41.8°
